Regional Weather Roundup
Issued by NWS

Home | Current Version | Previous Version | Graphics & Text | Print | Product List | Glossary On
Versions: 1 2 3 4 5 6 7 8 9 10 11 12 13 14 15 16 17 18 19 20 21 22 23 24 25 26 27 28 29 30 31 32 33 34 35 36 37 38 39 40 41 42 43 44 45 46 47 48 49 50
000
ASUS43 KDMX 251008
RWRIA

WEATHER ROUNDUP FOR IOWA
NATIONAL WEATHER SERVICE DES MOINES IA
500 AM CDT MON JUL 25 2016

NOTE: "FAIR" INDICATES FEW OR NO CLOUDS BELOW 12,000 FEET WITH NO
SIGNIFICANT WEATHER AND/OR OBSTRUCTIONS TO VISIBILITY.

* - THESE STATIONS ARE NOT NWS STATIONS...THUS NOT UNDER NWS
QUALITY CONTROL.  THEY ALSO DO NOT REPORT WEATHER SUCH
AS PRECIPITATION OR FOG.

IAZ001>003-012>014-020>022-031>034-043>046-251100-
   NORTHWEST IOWA

CITY           SKY/WX    TMP DP  RH WIND       PRES   REMARKS
CARROLL *      CLEAR     63  63 100 CALM      30.08R
CHEROKEE *     CLEAR     60  60 100 CALM      30.08R
LE MARS *      CLEAR     61  59  94 CALM      30.09R
SHELDON *      CLEAR     57  57 100 CALM      30.07R FOG
SIOUX CITY     CLEAR     62  59  90 S6        30.08R
SPENCER        CLEAR     58  57  97 W5        30.08R FOG
STORM LAKE *   CLEAR     64  61  88 NW5       30.09R
$$

IAZ055>058-069>071-079>083-090>094-251100-
   SOUTHWEST IOWA

CITY           SKY/WX    TMP DP  RH WIND       PRES   REMARKS
ATLANTIC *     PTCLDY    63  61  94 N5        30.08R
CLARINDA *       N/A     63  63 100 MISG      30.10R
COUNCIL BLFS * PTCLDY    66  63  88 N12       30.08R
CRESTON *      CLEAR     66  64  94 NE8       30.08R
HARLAN  *      CLEAR     63  63 100 CALM      30.12R
LAMONI         CLOUDY    65  63  93 NE5       30.06R
RED OAK *      PTCLDY    63  63 100 CALM      30.08R
SHENANDOAH *     N/A     66  66 100 CALM      30.08R
$$

IAZ047>049-059>061-072>074-084-251100-
   CENTRAL IOWA

CITY           SKY/WX    TMP DP  RH WIND       PRES   REMARKS
AMES           CLEAR     66  65  96 CALM      30.06S
ANKENY *         N/A    N/A N/A N/A MISG        N/A
BOONE *        CLEAR     64  63  94 CALM      30.06S
CHARITON *       N/A    N/A N/A N/A MISG        N/A
DES MOINES     PTCLDY    71  64  78 N7        30.05R
GRINNELL*      CLEAR     65  63  93 CALM      30.06S
KNOXVILLE *    CLEAR     68  63  83 N5        30.04S
MARSHALLTOWN   CLEAR     65  64  97 CALM      30.06R
NEWTON *       CLEAR     66  64  94 N8        30.05R
PELLA *        CLEAR     65  63  92 N3        30.06S
PERRY *          N/A     65  64  97 CALM      30.08R
$$

IAZ004>006-015-016-023>025-035-036-251100-
   NORTH CENTRAL IOWA

CITY           SKY/WX    TMP DP  RH WIND       PRES   REMARKS
ALGONA *       CLEAR     64  63  94 NW5       30.06F
ESTHERVILLE    CLEAR     60  59  96 W5        30.06F
FORT DODGE *   CLEAR     63  61  94 CALM      30.07S
MASON CITY     CLEAR     62  60  93 W5        30.07S
FOREST CITY *  FOG       59  59 100 CALM      30.06S VSB 1/4
IOWA FALLS *     N/A     63  61  94 W3        30.07S
$$

IAZ007>011-017>019-026>030-037>042-050>054-066-251100-
   NORTHEAST IOWA

CITY           SKY/WX    TMP DP  RH WIND       PRES   REMARKS
CEDAR RAPIDS   CLOUDY    66  66 100 CALM      30.03R
CHARLES CITY * CLEAR     63  63 100 W5        30.05S FOG
CLINTON *      CLOUDY    67  66  97 W6        30.02R
DECORAH *      CLEAR     64  64 100 CALM      30.03S
DUBUQUE        PTCLDY    68  64  87 N9        30.03R
MONTICELLO *   PTCLDY    66  64  94 NW6       30.02F
OELWEIN *      CLEAR     63  63 100 CALM      30.05F
WATERLOO       CLEAR     65  63  93 CALM      30.04R
$$

IAZ064-065-067-068-078-251100-
   EAST CENTRAL IOWA

CITY           SKY/WX    TMP DP  RH WIND       PRES   REMARKS
DAVENPORT      CLOUDY    68  66  93 NW5       30.02S
IOWA CITY      CLOUDY    71  65  81 N8        30.03S
MT. PLEASANT *   N/A     72  71  96 CALM      30.03R
MUSCATINE *    CLOUDY    70  66  88 CALM      30.02F
QUAD CITIES    PTCLDY    73  66  78 NW3       30.00S
$$

IAZ062-063-075>077-085>089-095>099-251100-
   SOUTHEAST IOWA

CITY           SKY/WX    TMP DP  RH WIND       PRES   REMARKS
BURLINGTON     CLOUDY    71  68  90 N5        30.03R
FAIRFIELD *    CLOUDY    68  64  88 N6        30.03F
KEOKUK *       CLOUDY    72  68  88 NE5       30.02R
OSKALOOSA *      N/A     64  62  93 N6        30.04S
CENTERVILLE *    N/A     66  63  88 CALM      30.06S
OTTUMWA        CLOUDY    63  61  93 CALM      30.04R
WASHINGTON *   CLOUDY    66  64  94 N5        30.04F
$$

ABBREVIATIONS USED IN REMARKS
   TC - TEMPERATURES IN CELSIUS
  WCI - WIND CHILL INDEX
   HX - HEAT INDEX
  VSB - VISIBILITY
$$





USA.gov is the U.S. government's official web portal to all federal, state and local government web resources and services.